Location: Cheyres
(46.8153°N, 6.7877°E)
Time: 00:14:32
(UTC+00:00)

Cosmos 1328 Rocket - Pass Details

Date: 28 September 2021
Orbit: 601 x 627 km, 82.5° (Epoch: 19 October)

Event Time Altitude Azimuth Distance (km) Brightness Sun altitude
Exits shadow 02:19:11 30° 35° (NE) 1,100 5.3 -31.3°
Drops below altitude 10° 02:21:33 10° 19° (NNE) 1,958 6.7 -30.9°
Sets 02:23:49 0° 14° (NNE) 2,865 7.6 -30.6°
